[[{"header":{"parameterUnit":"m.s-1","parameterCategory":1,"la1":30.2991,"la2":30.254,"lo1":-89.0895,"lo2":-89.0444,"dx":0.0017,"dy":0.0017,"nx":28,"ny":28,"refTime":"2022-11-03T15:00:00:Z","depth":0,"parameterNumber":2,"parameterNumberName":"U-component_of_WINDS"},"data":[0,0,0,0,0,0,0,0,0,0,0,0,0,0,0,0,0,0,0,0,0,0,0,0,0,0,0,0,0,0,0,0,0,0,0,0,0,0,0,0,0,0,0,0,0,0,0,0,0,0,0,0,0,0,0,0,0,0,-1.5205,-1.5207,0,-1.5315,-1.5316,-1.5318,-1.5377,-1.5377,-1.5377,-1.5377,-1.5491,-1.5494,-1.5497,0,0,0,0,0,0,0,0,0,0,0,0,0,-1.5048,-1.5051,-1.5205,-1.5207,-1.5208,-1.5315,-1.5316,-1.5318,-1.5376,-1.5377,-1.5377,-1.5377,-1.549,-1.5494,-1.5497,0,0,0,0,0,0,0,0,0,0,0,0,0,-1.5133,-1.5052,-1.5205,-1.525,-1.5255,-1.5315,-1.5317,-1.5318,-1.5376,-1.5377,-1.5377,-1.5377,-1.5489,-1.5493,-1.5498,-1.5521,0,0,-1.5511,-1.5513,0,0,0,0,0,0,0,0,-1.5128,-1.5139,-1.5242,-1.5247,-1.5253,-1.5332,-1.5303,-1.5387,-1.5376,-1.533,-1.5377,-1.5377,-1.5438,-1.5447,-1.5467,-1.5527,-1.5532,-1.5511,-1.5514,-1.5516,-1.5517,0,0,0,0,0,0,0,-1.5122,-1.5134,-1.5249,-1.5243,-1.525,-1.5265,-1.5278,-1.5319,-1.5382,-1.5334,-1.5339,-1.5351,-1.5441,-1.5463,-1.547,-1.5533,-1.5511,-1.5515,-1.5518,-1.552,-1.5619,-1.5619,0,0,0,0,0,0,-1.5109,-1.5129,-1.5245,-1.5252,-1.519,-1.5268,-1.5282,-1.5307,-1.5382,-1.5393,-1.5351,-1.5353,-1.5455,-1.5465,-1.5474,-1.5508,-1.5516,-1.552,-1.5523,-1.5619,-1.5619,-1.5619,0,0,0,0,0,0,-1.5105,-1.5119,-1.5241,-1.5192,-1.5209,-1.5271,-1.5298,-1.5309,-1.533,-1.5394,-1.5406,-1.5361,-1.5456,-1.5468,-1.5509,-1.5513,-1.5522,-1.5526,-1.5619,-1.5619,-1.5619,-1.5574,0,0,0,0,0,0,-1.51,-1.5117,-1.5126,-1.5192,-1.5211,-1.5273,-1.5298,-1.5311,-1.5337,-1.5342,-1.5407,-1.5418,-1.5457,-1.5502,-1.5514,-1.5519,-1.553,-1.5619,-1.5619,-1.5619,-1.5576,-1.5573,-1.557,0,0,0,0,0,-1.5095,-1.5109,-1.5126,-1.514,-1.5224,-1.5273,-1.5284,-1.5328,-1.5337,-1.5348,-1.5389,-1.5416,-1.551,-1.5506,-1.5519,-1.5526,-1.5619,-1.5619,-1.5619,-1.5577,-1.5573,-1.557,0,0,0,0,0,0,-1.5043,-1.5119,-1.5138,-1.5174,-1.5217,-1.5283,-1.5297,-1.5323,-1.5364,-1.5367,-1.542,-1.5434,-1.547,-1.5502,-1.5496,-1.5553,-1.5568,-1.557,-1.5531,-1.5528,-1.5525,-1.5517,-1.5533,0,0,0,0,0,-1.5036,-1.5069,-1.5134,-1.5159,-1.5179,-1.5234,-1.5258,-1.5288,-1.5334,-1.5353,-1.5397,-1.5441,-1.5481,-1.5506,-1.5547,-1.558,-1.5596,-1.5592,-1.5589,-1.5586,-1.5588,-1.5609,-1.5608,-1.5619,-1.5619,-1.5619,0,0,-1.5021,-1.5067,-1.5084,-1.515,-1.5186,-1.522,-1.5249,-1.5284,-1.531,-1.5358,-1.54,-1.5433,-1.5487,-1.5524,-1.5543,-1.5552,-1.5588,-1.5586,-1.5583,-1.5587,-1.5609,-1.5608,-1.5607,-1.5619,-1.5619,-1.5619,0,0,-1.5012,-1.5049,-1.5075,-1.5111,-1.5166,-1.5202,-1.5208,-1.5271,-1.5295,-1.5337,-1.5374,-1.5407,-1.5474,-1.5511,-1.5538,-1.5543,-1.557,-1.5555,-1.554,-1.556,-1.556,-1.5559,-1.5562,-1.5562,-1.5556,-1.5556,-1.5556,0,-1.4987,-1.5039,-1.5085,-1.5118,-1.5146,-1.5191,-1.5218,-1.5251,-1.5316,-1.5335,-1.5343,-1.5429,-1.5468,-1.5516,-1.5517,-1.5537,-1.5547,-1.5548,-1.5556,-1.5556,-1.5556,-1.5559,-1.556,-1.5554,-1.5554,-1.5555,-1.5555,0,-1.5006,-1.5042,-1.5056,-1.5117,-1.5147,-1.5177,-1.5228,-1.5253,-1.5281,-1.5316,-1.5359,-1.5408,-1.5459,-1.5472,-1.55,-1.5524,-1.5528,-1.5545,-1.5561,-1.5552,-1.5556,-1.5557,-1.5551,-1.5552,-1.5553,-1.5553,0,0,-1.4968,-1.5054,-1.5059,-1.5087,-1.5151,-1.518,-1.5212,-1.5261,-1.5282,-1.5325,-1.5354,-1.541,-1.5427,-1.5458,-1.5491,-1.5508,-1.551,-1.5524,-1.5526,-1.552,-1.554,-1.5526,-1.5527,-1.5528,-1.5528,-1.5529,-1.5536,0,-1.4968,-1.5027,-1.5069,-1.5112,-1.5146,-1.5189,-1.5217,-1.526,-1.5294,-1.5329,-1.5367,-1.5406,-1.5425,-1.5445,-1.5464,-1.5505,-1.5515,-1.5506,-1.5556,-1.5557,-1.5541,-1.5529,-1.5515,-1.5519,-1.5538,-1.5538,-1.5538,0,-1.4976,-1.5018,-1.5064,-1.5124,-1.514,-1.5164,-1.5213,-1.5245,-1.5295,-1.5319,-1.5354,-1.5387,-1.5424,-1.5436,-1.5487,-1.548,-1.5504,-1.5527,-1.5528,-1.5535,-1.5547,-1.5536,-1.5521,-1.5522,-1.5541,-1.554,-1.554,0,-1.4944,-1.5012,-1.5048,-1.5071,-1.5142,-1.5159,-1.5189,-1.5239,-1.5266,-1.5309,-1.5328,-1.5375,-1.5401,-1.5437,-1.5482,-1.5486,-1.553,-1.5545,-1.5551,-1.555,-1.5559,-1.5557,-1.5548,-1.5573,-1.5573,-1.5573,-1.5573,0,-1.494,-1.4967,-1.5034,-1.5057,-1.5088,-1.5137,-1.5167,-1.5201,-1.5245,-1.5276,-1.5316,-1.5344,-1.5402,-1.5438,-1.5474,-1.5512,-1.5523,-1.5544,-1.5553,-1.554,-1.5538,-1.5557,-1.5558,-1.5573,-1.5573,-1.5573,-1.5573,0,-1.4909,-1.4956,-1.4998,-1.5062,-1.5079,-1.5099,-1.5155,-1.5179,-1.5215,-1.5253,-1.5265,-1.5323,-1.5367,-1.5416,-1.5476,-1.55,-1.5536,-1.5549,-1.5519,-1.5524,-1.5528,-1.5527,-1.553,-1.5534,-1.5555,-1.5555,-1.5555,0,-1.4904,-1.4925,-1.4992,-1.5015,-1.5044,-1.508,-1.5108,-1.5158,-1.5185,-1.5244,-1.5261,-1.5307,-1.5347,-1.5415,-1.5463,-1.551,-1.5525,-1.5523,-1.5532,-1.5519,-1.5526,-1.5524,-1.5527,-1.552,-1.552,-1.5519,-1.5519,0,-1.489,-1.4912,-1.495,-1.4996,-1.5028,-1.5067,-1.5108,-1.5125,-1.5182,-1.5211,-1.5256,-1.5287,-1.5348,-1.5395,-1.5447,-1.548,-1.5509,-1.5516,-1.552,-1.5507,-1.5489,-1.5499,-1.5512,-1.5515,-1.5516,-1.5516,-1.5516,-1.5516,-1.4872,-1.4893,-1.4943,-1.4984,-1.502,-1.5057,-1.5083,-1.5123,-1.5161,-1.5214,-1.5241,-1.5286,-1.5336,-1.5409,-1.5441,-1.5478,-1.5487,-1.5493,-1.5494,-1.5495,-1.5492,-1.5483,-1.5488,-1.5488,-1.5488,-1.5488,-1.5488,0,-1.486,-1.4894,-1.4932,-1.4987,-1.502,-1.5044,-1.5091,-1.5117,-1.5155,-1.5199,-1.5238,-1.529,-1.5335,-1.5386,-1.5435,-1.5454,-1.5469,-1.5465,-1.5465,-1.5472,-1.548,-1.5472,-1.5453,-1.5453,-1.5453,-1.5453,-1.5453,-1.5453,-1.4858,-1.4895,-1.4923,-1.4979,-1.5013,-1.5056,-1.5081,-1.5116,-1.5151,-1.5207,-1.5245,-1.5278,-1.5325,-1.5378,-1.5421,-1.5435,-1.5451,-1.5443,-1.5462,-1.5468,-1.5471,-1.5474,-1.5467,-1.5446,-1.5446,-1.545,-1.545,-1.545]},{"header":{"parameterUnit":"m.s-1","parameterCategory":1,"la1":30.2991,"la2":30.254,"lo1":-89.0895,"lo2":-89.0444,"dx":0.0017,"dy":0.0017,"nx":28,"ny":28,"refTime":"2022-11-03T15:00:00:Z","depth":0,"parameterNumber":3,"parameterNumberName":"V-component_of_WINDS"},"data":[0,0,0,0,0,0,0,0,0,0,0,0,0,0,0,0,0,0,0,0,0,0,0,0,0,0,0,0,0,0,0,0,0,0,0,0,0,0,0,0,0,0,0,0,0,0,0,0,0,0,0,0,0,0,0,0,0,0,4.0571,4.0572,0,4.0687,4.0689,4.069,4.0764,4.0765,4.0765,4.0766,4.0879,4.0882,4.0884,0,0,0,0,0,0,0,0,0,0,0,0,0,4.041,4.0413,4.0571,4.0572,4.0574,4.0687,4.0689,4.069,4.0764,4.0765,4.0765,4.0766,4.0878,4.0881,4.0885,0,0,0,0,0,0,0,0,0,0,0,0,0,4.0498,4.0414,4.0571,4.0624,4.063,4.0687,4.0689,4.0691,4.0764,4.0765,4.0765,4.0766,4.0877,4.0881,4.0885,4.0895,0,0,4.0897,4.0899,0,0,0,0,0,0,0,0,4.0493,4.0504,4.0615,4.0621,4.0628,4.0712,4.0674,4.0759,4.0764,4.0713,4.0766,4.0766,4.0823,4.0831,4.0851,4.0901,4.0906,4.0897,4.09,4.0901,4.0902,0,0,0,0,0,0,0,4.0487,4.05,4.0617,4.0617,4.0624,4.0642,4.0655,4.069,4.0762,4.0718,4.0723,4.0736,4.0826,4.0847,4.0855,4.0907,4.0897,4.0901,4.0903,4.0905,4.0976,4.0975,0,0,0,0,0,0,4.0473,4.0494,4.0613,4.062,4.0561,4.0644,4.0659,4.0684,4.0762,4.0775,4.0736,4.0739,4.084,4.085,4.0859,4.0879,4.0901,4.0905,4.0907,4.0976,4.0975,4.0975,0,0,0,0,0,0,4.0469,4.0483,4.0609,4.0559,4.0576,4.0647,4.0674,4.0686,4.0708,4.0776,4.0789,4.0744,4.0841,4.0853,4.0887,4.0884,4.0907,4.091,4.0977,4.0976,4.0975,4.0918,0,0,0,0,0,0,4.0464,4.0481,4.0486,4.0559,4.0579,4.0635,4.0674,4.0688,4.0715,4.0721,4.0788,4.0799,4.0843,4.0881,4.0891,4.089,4.0913,4.0977,4.0976,4.0975,4.0921,4.0916,4.0911,0,0,0,0,0,4.0458,4.0463,4.0486,4.05,4.0587,4.0635,4.0646,4.0698,4.0714,4.072,4.0765,4.0797,4.0883,4.0884,4.0896,4.0896,4.0978,4.0977,4.0976,4.0923,4.0917,4.0911,0,0,0,0,0,0,4.0386,4.0474,4.05,4.0528,4.0574,4.0647,4.0656,4.0689,4.073,4.0733,4.0794,4.0809,4.0837,4.087,4.0869,4.0912,4.0934,4.0935,4.089,4.0885,4.088,4.0872,4.0917,0,0,0,0,0,4.0373,4.0407,4.0481,4.0499,4.0521,4.0585,4.0607,4.0644,4.0693,4.0712,4.0759,4.0804,4.0842,4.0865,4.0903,4.0926,4.0943,4.0932,4.0927,4.0923,4.0924,4.0942,4.0938,4.0972,4.0972,4.0972,0,0,4.0347,4.04,4.0416,4.0486,4.0526,4.0559,4.06,4.0632,4.0657,4.0716,4.0753,4.0789,4.0843,4.0873,4.0888,4.09,4.0918,4.0922,4.0918,4.0921,4.094,4.0937,4.0934,4.0971,4.0971,4.0971,0,0,4.0318,4.036,4.0382,4.0422,4.0483,4.0525,4.053,4.06,4.0627,4.0665,4.0711,4.0741,4.0804,4.0842,4.0869,4.0859,4.0891,4.0869,4.0845,4.0862,4.0859,4.0857,4.0855,4.0854,4.0869,4.0869,4.0869,0,4.0278,4.033,4.0388,4.0419,4.0449,4.0507,4.053,4.0565,4.0634,4.0654,4.0667,4.075,4.0791,4.0832,4.083,4.0849,4.0858,4.0862,4.0855,4.0854,4.0853,4.0852,4.0851,4.0866,4.0867,4.0867,4.0867,0,4.0279,4.0315,4.0325,4.0395,4.0426,4.0452,4.0514,4.0538,4.0572,4.0614,4.0653,4.0704,4.0755,4.0768,4.0799,4.0814,4.0821,4.0844,4.0867,4.0846,4.0846,4.0846,4.0862,4.0863,4.0864,4.0865,0,0,4.0205,4.0309,4.0312,4.0346,4.0419,4.0447,4.0477,4.053,4.0551,4.0597,4.0624,4.0678,4.0702,4.0733,4.077,4.0784,4.0776,4.0807,4.0809,4.0801,4.0798,4.0781,4.078,4.0798,4.0798,4.0798,4.0794,0,4.0188,4.0247,4.0302,4.034,4.0376,4.0433,4.0459,4.0507,4.0547,4.0582,4.0626,4.0664,4.0691,4.0711,4.0727,4.0774,4.0777,4.0774,4.0825,4.0826,4.0811,4.078,4.0761,4.0755,4.0795,4.0795,4.0795,0,4.0176,4.0224,4.0267,4.034,4.0357,4.038,4.0435,4.0467,4.0523,4.0551,4.0588,4.0629,4.0664,4.0683,4.0733,4.073,4.0754,4.078,4.0781,4.0789,4.0809,4.0788,4.0754,4.0753,4.0795,4.0795,4.0795,0,4.0121,4.0195,4.0232,4.0259,4.0344,4.036,4.0396,4.0452,4.0482,4.0529,4.0549,4.0598,4.0626,4.0663,4.0716,4.0725,4.0761,4.0784,4.0786,4.0785,4.0791,4.079,4.0762,4.0804,4.0804,4.0804,4.0804,0,4.0097,4.0122,4.0209,4.0232,4.0262,4.0324,4.0352,4.0393,4.0443,4.0475,4.0526,4.0554,4.0622,4.0658,4.07,4.0736,4.0747,4.0772,4.0782,4.0768,4.0765,4.0785,4.0787,4.0804,4.0804,4.0804,4.0804,0,4.004,4.01,4.0144,4.0223,4.0244,4.0262,4.033,4.0354,4.0398,4.0438,4.045,4.0519,4.0565,4.0622,4.0685,4.0713,4.0746,4.0761,4.0728,4.0735,4.0734,4.0734,4.0718,4.072,4.0759,4.0758,4.0758,0,4.0022,4.0043,4.0126,4.0152,4.0187,4.0228,4.026,4.0322,4.0353,4.042,4.0436,4.0487,4.0531,4.0602,4.0657,4.0706,4.0724,4.0716,4.0732,4.0718,4.0727,4.0725,4.0729,4.0711,4.0711,4.071,4.071,0,3.9984,4.0013,4.0058,4.0113,4.015,4.0196,4.0245,4.0263,4.0335,4.0367,4.0416,4.0451,4.0518,4.0568,4.0625,4.0661,4.0698,4.0704,4.0708,4.0693,4.0674,4.0687,4.0718,4.0704,4.0705,4.0705,4.0705,4.0706,3.9948,3.997,4.0033,4.0082,4.0126,4.017,4.0198,4.0248,4.029,4.0351,4.0385,4.0434,4.0492,4.0573,4.0609,4.0648,4.0661,4.0665,4.0666,4.0667,4.0663,4.0667,4.0658,4.0658,4.0658,4.0659,4.0659,0,3.9914,3.9958,4.0002,4.007,4.0109,4.0142,4.0198,4.0228,4.0271,4.0323,4.0367,4.0425,4.0474,4.0535,4.0588,4.0608,4.0626,4.062,4.062,4.0628,4.0647,4.064,4.0605,4.0605,4.0605,4.0605,4.0605,4.0605,3.9901,3.9943,3.998,4.0044,4.0088,4.0138,4.0168,4.021,4.0252,4.0315,4.0358,4.0398,4.0454,4.0513,4.056,4.0576,4.0594,4.0584,4.0605,4.0622,4.0626,4.0631,4.0625,4.0586,4.0586,4.0583,4.0583,4.0583]}]]